Location: Azereix
(43.2167°N, 0.0167°W)
Time: 09:39:25
(UTC+00:00)

Daily predictions for brighter satellites

Satellite Brightness Start Highest point End
(mag) Time Altitude Azimuth Time Altitude Azimuth Time Altitude Azimuth
Feng Yun 1-1 Rocket 4.5 16:47:56 10° SE 16:53:01 45° ENE 16:58:08 10° N
Cosmos 2219 Rocket 2.3 16:49:41 10° S 16:55:09 58° ESE 17:00:41 10° NNE
BREEZE-M R/B 4.0 16:50:26 10° W 16:57:27 48° NNW 17:01:02 10° NE
Cosmos 494 Rocket 4.5 16:55:00 10° SSW 17:00:14 64° WNW 17:05:28 10° NNE
Cosmos 1844 Rocket 3.2 16:57:27 10° NNW 17:02:59 66° WSW 17:08:30 10° SSE
Cosmos 1733 Rocket 3.7 16:59:12 10° N 17:03:13 34° ENE 17:07:13 10° SE
Cosmos 1536 4.2 17:02:19 10° NNE 17:05:15 19° ENE 17:08:10 10° ESE
Cosmos 1269 Rocket 4.4 17:00:20 10° SSW 17:05:38 70° WNW 17:10:57 10° NNE
SMAP 3.2 17:01:17 10° SSE 17:05:47 53° ENE 17:10:20 10° N
PSLV R/B 3.9 17:02:42 10° NNE 17:06:53 76° ESE 17:10:59 10° S
Cosmos 1602 4.0 17:03:08 10° NNW 17:07:01 74° W 17:10:53 10° S
Cosmos 1500 3.9 17:05:20 10° NNE 17:08:42 30° ENE 17:12:02 10° SE
CZ-4 R/B 3.0 17:07:54 10° E 17:09:57 14° ENE 17:11:59 10° NNE
Cosmos 1869 Rocket 4.2 17:05:49 10° NNW 17:10:10 60° W 17:14:32 10° S
Cosmos 1340 3.0 17:06:33 10° NNW 17:10:19 69° W 17:14:05 10° S
ALOS 4.1 17:09:04 10° SSW 17:13:21 36° W 17:17:40 10° NNW
H-2A R/B 2.7 17:10:29 10° SSE 17:14:05 53° ENE 17:17:43 10° N
Cosmos 2180 Rocket 4.5 17:10:16 10° N 17:16:33 71° E 17:22:51 10° SSE
ATLAS 2AS CENTAUR R/B 3.8 17:09:56 10° WSW 17:17:39 51° NW 17:25:25 10° NNE
Lacrosse 5 rocket 1.6 17:14:00 10° SSW 17:18:16 58° SE 17:21:46 13° NE
COSMOS 2428 2.7 17:15:01 10° SSW 17:20:42 90° SE 17:26:26 10° NNE
Cosmos 304 Rocket 3.8 17:16:02 10° NNW 17:20:53 87° ENE 17:25:41 10° SSE
YAOGAN 6 3.8 17:19:35 10° ESE 17:22:15 20° ENE 17:24:56 10° NNE
Cosmos 1302 Rocket 4.1 17:20:38 10° NNW 17:25:56 82° WSW 17:31:10 10° SSE
Meteor 1-5 Rocket 4.1 17:20:25 10° N 17:26:00 70° ENE 17:31:22 10° SSE
SL-4 R/B 2.3 17:24:23 10° WSW 17:28:02 53° NNW 17:31:03 16° NE
IRS-1C Rocket 4.2 17:23:01 10° SSE 17:28:18 84° WSW 17:33:37 10° NNW
Okean O Rocket 3.8 17:25:49 10° SSW 17:29:38 30° W 17:33:28 10° NW
Cosmos 2251 Rocket 3.6 17:25:25 10° S 17:30:36 56° ESE 17:35:47 10° NNE
NOSS 0 Rocket 4.1 17:25:12 10° S 17:31:14 57° ESE 17:37:20 10° NNE
Cosmos 1092 Rocket 4.5 17:25:33 10° SSE 17:31:16 37° E 17:36:57 10° NNE
ATLAS 5 CENTAUR R/B 0.8 17:32:26 10° SSW 17:35:06 52° SE 17:35:54 29° ENE
Cosmos 2242 Rocket 4.1 17:30:55 10° SSE 17:35:10 41° E 17:39:28 10° NNE
FengYun 1-2 T 4.5 17:32:40 10° SE 17:37:49 43° ENE 17:43:00 10° N
Cosmos 1862 Rocket 3.4 17:33:45 10° S 17:38:03 70° E 17:42:25 10° NNE
ERBS 3.2 17:36:13 10° WNW 17:39:27 49° SW 17:42:42 10° SSE
NOSS 2 (A) 3.7 17:38:04 10° NW 17:40:29 78° NE 17:42:28 13° SE
Okean-O 2.5 17:37:42 10° SSE 17:42:06 69° ENE 17:46:32 10° N
USA 215 4.2 17:44:09 13° NE 17:49:23 36° NNW 17:55:14 10° W
Cosmos 1666 3.0 17:49:57 10° N 17:53:31 40° ENE 17:57:02 10° SSE
Envisat 2.9 17:48:42 10° SSE 17:53:46 80° ENE 17:58:52 10° N
Cosmos 2278 Rocket 2.1 17:50:54 10° NNW 17:56:36 82° ENE 18:02:15 10° SSE
Cosmos 2360 Rocket 4.5 17:58:27 10° W 18:02:14 18° NW 18:06:03 10° N
BREEZE-M DEB (TANK) 2.3 17:59:02 10° W 18:03:34 56° N 18:04:16 43° NE
Cosmos 407 Rocket 4.4 17:59:43 10° SSE 18:03:54 27° E 18:03:54 27° E
SL-16 R/B 2.8 18:04:08 10° SSE 18:09:08 33° ESE 18:09:56 32° E
Shenzhou-11 Module 1.9 18:08:10 10° W 18:10:38 69° WSW 18:10:38 69° WSW
Cosmos 2369 Rocket 4.2 18:08:36 10° NNE 18:09:07 11° NNE 18:09:07 11° NNE
Cosmos 1992 Rocket 4.0 18:06:25 10° NNW 18:11:41 85° WSW 18:16:54 10° SSE
Nadezhda 4 Rocket 4.3 18:05:27 10° SSW 18:11:45 70° W 18:18:05 10° N
Cosmos 2333 Rocket 3.6 18:07:18 10° WSW 18:12:34 36° NW 18:17:54 10° N
RESURS DK-1 4.0 18:10:18 10° WSW 18:14:01 31° NW 18:17:10 13° N
STARLINK-46 4.3 18:11:56 10° W 18:14:06 25° NNW 18:14:06 25° NNW
Cosmos 1908 Rocket 3.4 18:09:58 10° N 18:14:25 79° E 18:18:46 10° S
COSMO-SKYMED 1 2.5 18:12:09 16° NNE 18:15:36 90° ENE 18:19:56 10° SSW
NOAA 15 4.5 18:10:47 10° SSE 18:15:59 65° ENE 18:21:12 10° N
ISS -3.8 18:13:46 10° NW 18:17:00 73° N 18:17:00 73° N
Cosmos 1553 Rocket 4.4 18:11:45 10° N 18:17:39 38° ENE 18:23:33 10° SE
Meteor 1-27 Rocket 4.4 18:14:11 10° SSW 18:19:46 57° WNW 18:25:32 10° N
Cosmos 1812 4.4 18:16:23 10° SW 18:19:53 33° WNW 18:23:26 10° N
STARLINK-60 3.5 18:18:01 10° SW 18:20:54 50° S 18:20:54 50° S
Cosmos 2237 Rocket 2.3 18:16:04 10° SSW 18:21:45 76° WNW 18:25:48 20° NNE
YAOGAN 1 2.4 18:19:08 10° SSE 18:23:25 70° ENE 18:27:44 10° N
BREEZE-M DEB (TANK) 2.2 18:24:00 10° WNW 18:27:29 60° WNW 18:27:29 60° WNW
USA 116 4.3 18:24:32 19° NNE 18:28:30 78° ESE 18:33:39 10° S
Cosmos 1900 4.2 18:28:10 10° NNW 18:33:05 85° WSW 18:35:41 28° SSE
Cosmos 2026 Rocket 3.8 18:28:23 10° S 18:34:26 81° E 18:40:31 10° N
Cosmos 2219 Rocket 4.1 18:35:01 10° WSW 18:39:30 24° NW 18:44:02 10° N
Okean 1-7 3.0 18:37:21 10° S 18:41:40 80° W 18:42:13 66° NNW
Meteor 1-18 Rocket 4.1 18:38:08 10° S 18:43:49 67° E 18:44:37 59° NE
CZ-4 R/B 2.2 18:40:47 10° S 18:44:36 48° W 18:48:22 10° NNW
DMSP B5D1-3 4.3 18:47:33 75° ENE 18:47:47 77° ESE 18:52:53 10° S
Cosmos 1417 Rocket 4.3 18:42:25 10° N 18:48:28 61° E 18:54:32 10° SSE
Cosmos 1655 Rocket 4.4 18:45:51 10° SSE 18:50:25 44° SE 18:50:25 44° SE
Cosmos 1190 Rocket 4.4 18:48:59 10° S 18:52:51 48° SSE 18:52:51 48° SSE
Cosmos 2297 3.5 18:51:16 10° NNW 18:56:47 77° NE 18:56:47 77° NE
Lacrosse 5 rocket 3.0 18:54:05 10° W 18:57:26 26° NW 18:57:26 26° NW
Cosmos 1943 Rocket 4.1 18:56:25 10° N 18:57:45 16° N 18:57:45 16° N
CSL-04 Rocket 4.2 18:56:22 10° S 19:01:31 55° W 19:06:43 10° NNW
SL-4 R/B 4.2 19:05:00 10° WNW 19:06:39 19° NW 19:06:39 19° NW
SL-16 R/B 3.6 19:47:51 10° SW 19:51:52 34° W 19:51:52 34° W
